Location: Artiguedieu
(43.5000°N, 0.5454°E)
Time: 00:08:11
(UTC+00:00)

Transit 2A Rocket - Pass Details

Date: 28 July 2021
Orbit: 586 x 916 km, 66.7° (Epoch: 16 September)

Event Time Altitude Azimuth Distance (km) Brightness Sun altitude
Rises 23:36:54 0° 328° (NNW) 3,260 9.3 -27.4°
Reaches altitude 10° 23:39:13 10° 329° (NNW) 2,377 8.3 -27.5°
Maximum altitude 23:44:46 89° 57° (ENE) 854 5.1 -27.6°
Enters shadow 23:44:51 87° 124° (SE) 856 5.1 -27.6°
Drops below altitude 10° 23:50:43 10° 150° (SSE) 2,548 - -27.7°
Sets 23:53:17 0° 150° (SSE) 3,510 - -27.7°
